Voltar ao catálogo

STARLINK-32734

AtivoComunicaçõesVLEO
NORAD 62476·PAYLOAD·🇺🇸 United States

Lançado Dec 31, 2024 de Cape Canaveral Space Force Station

Loading…

Próximas Passagens (próximas 24 horas)

TLE

AtualizadoSource: CelesTrak SupGP

Época: Sep 15, 2026, 02:15 UTC

1 62476C 24254Q   26258.09423611 -.00021705  00000+0 -78639-3 0  2581
2 62476  43.0032  26.8596 0001439 262.4479 262.9499 15.27579497    14

Acompanhe STARLINK-32734 em tempo real com AllMySat

Download on the App Store